Location: Middelsbur
(53.6609°N, 7.5020°E)
Time: 11:52:25
(UTC+00:00)

Thor Agena Rocket - Pass Details

Date: 06 July 2020
Orbit: 759 x 808 km, 99.0° (Epoch: 07 August)

Event Time Altitude Azimuth Distance (km) Brightness Sun altitude
Rises 21:50:16 0° 20° (NNE) 3,273 7.5 -10.5°
Reaches altitude 10° 21:52:44 10° 28° (NNE) 2,333 6.6 -10.6°
Maximum altitude 21:57:36 41° 98° (E) 1,101 4.1 -10.9°
Enters shadow 22:01:28 15° 164° (SSE) 1,973 5.0 -11.1°
